www.pogodaiklimat.ru

Погода и климат >> Архив погоды >> Япония >> Цуяма


ПОГОДА в Цуяме

  • Прогноз погоды в Цуяме
  • Монитор погоды в Цуяме

АРХИВ ПОГОДЫ в Цуяме

Время (UTC), дата Ветер
(напр.,м/с)
 
Видим.   Явления Облачность Т
(С)
Тd
(С)
f
(%)
Тe
(С)
Тes
(С)
Комфортность P
(гПа)
Po
(гПа)
Тmin
(С)
Tmax
(С)
R
(мм)
R24
(мм)
S
(см)
13 12.08 СЗ 1 20 км н/о +27.8 +23.2 76 +37 +37 очень
душно
1004.9 988.4
14 12.08 З 2 20 км н/о +27.1 +23.8 82 +37 +37 очень
душно
1004.8 988.2
15 12.08 З 1 20 км н/о +26.4 +23.9 86 +36 +36 очень
душно
1004.7 988.1
16 12.08 З 1 20 км н/о +25.6 +23.5 88 +35 +35 очень
душно
1004.2 987.6
17 12.08 З 2 20 км н/о +24.8 +23.4 92 +33 +33 очень
душно
1003.9 987.2
18 12.08 З 2 20 км н/о +24.4 +23.2 93 +33 +33 очень
душно
1003.7 987.0
19 12.08 СЗ 2 20 км н/о +24.1 +23.3 95 +32 +32 очень
душно
1003.4 986.7
20 12.08 З 2 20 км н/о +23.8 +23.0 95 +32 +32 очень
душно
1003.6 986.9
21 12.08 З 2 20 км н/о +24.1 +22.9 93 +32 +32 очень
душно
1004.0 987.3
22 12.08 З 1 20 км н/о +26.3 +23.2 83 +35 +35 очень
душно
1004.2 987.6
23 12.08 З 1 20 км н/о +28.3 +22.8 72 +38 +38 очень
душно
1004.0 987.5
00 13.08 ЮВ 2 20 км н/о +30.3 +23.0 65 +40 +40 очень
душно
1003.4 987.1 +23.7
01 13.08 В 2 20 км н/о +33.0 +23.6 58 +44 +44 опасность
перегрева
1002.9 986.7
02 13.08 В 4 20 км н/о +32.4 +23.1 58 +43 +43 опасность
перегрева
1002.5 986.3
03 13.08 ЮВ 4 20 км н/о +34.0 +23.1 53 +44 +44 опасность
перегрева
1002.3 986.2
04 13.08 ЮВ 4 20 км н/о +36.2 +23.4 48 +47 +47 опасность
перегрева
1001.4 985.4
05 13.08 ЮВ 4 20 км н/о +35.6 +22.5 47 +45 +45 опасность
перегрева
1001.1 985.1
06 13.08 ЮВ 3 20 км н/о +33.4 +23.7 57 +45 +45 опасность
перегрева
1001.0 984.9
07 13.08 ЮВ 3 20 км н/о +34.0 +23.4 54 +45 +45 опасность
перегрева
1000.6 984.5
08 13.08 В 4 20 км н/о +33.9 +23.3 54 +44 +44 опасность
перегрева
1000.5 984.4
09 13.08 ЮВ 3 20 км н/о +33.5 +22.6 53 +43 +43 опасность
перегрева
1000.5 984.4
10 13.08 В 3 20 км н/о +32.3 +22.7 57 +42 +42 опасность
перегрева
1001.2 985.0
11 13.08 СВ 3 20 км н/о +31.0 +22.9 62 +41 +41 опасность
перегрева
1001.9 985.6
12 13.08 В 2 20 км н/о +29.7 +23.2 68 +40 +40 очень
душно
1002.6 986.2 +36.6
13 13.08 В 2 20 км н/о +29.1 +22.6 68 +38 +38 очень
душно
1002.4 986.0
14 13.08 ЮВ 2 20 км н/о +27.6 +23.4 78 +37 +37 очень
душно
1002.2 985.7
15 13.08 В 2 20 км н/о +28.4 +22.2 69 +37 +37 очень
душно
1001.8 985.4
16 13.08 ЮЗ 1 20 км н/о +27.3 +23.6 80 +37 +37 очень
душно
1001.5 985.0
17 13.08 СЗ 1 20 км н/о +26.9 +23.4 81 +36 +36 очень
душно
1001.0 984.5
18 13.08 штиль 0 20 км н/о +26.3 +23.4 84 +36 +36 очень
душно
1000.7 984.2
19 13.08 СЗ 1 20 км н/о +26.1 +23.4 85 +35 +35 очень
душно
1000.5 984.0
20 13.08 З 2 20 км н/о +25.4 +23.1 87 +34 +34 очень
душно
1000.4 983.8
21 13.08 З 2 20 км н/о +25.7 +23.4 87 +35 +35 очень
душно
1000.5 983.9
22 13.08 ЮВ 1 11 км н/о +27.2 +23.2 79 +37 +37 очень
душно
1000.2 983.7
23 13.08 В 2 20 км н/о +29.5 +23.9 72 +41 +41 опасность
перегрева
999.9 983.6
00 14.08 В 5 20 км н/о +32.1 +23.4 60 +43 +43 опасность
перегрева
999.6 983.4 +25.2
01 14.08 В 6 20 км н/о +33.5 +22.9 54 +44 +44 опасность
перегрева
998.4 982.3
02 14.08 В 6 20 км н/о +33.4 +22.5 53 +43 +43 опасность
перегрева
998.0 981.9
03 14.08 В 6 20 км н/о +33.9 +22.0 50 +43 +43 опасность
перегрева
996.9 980.8
04 14.08 В 5 20 км н/о +34.1 +22.2 50 +43 +43 опасность
перегрева
996.2 980.2
05 14.08 В 6 20 км н/о +33.5 +22.3 52 +43 +43 опасность
перегрева
996.0 979.9
06 14.08 В 2 20 км слаб. дождь н/о +28.1 +25.5 86 +41 +41 опасность
перегрева
996.6 980.2 0.5
07 14.08 В 4 20 км в посл. час дождь н/о +31.5 +24.6 67 +44 +44 опасность
перегрева
995.6 979.4
08 14.08 В 4 20 км н/о +30.8 +24.0 67 +42 +42 опасность
перегрева
995.6 979.4
09 14.08 ЮВ 3 12 км слаб. дождь н/о +28.3 +24.7 81 +40 +40 очень
душно
995.9 979.6
10 14.08 ЮВ 4 3900 м дождь н/о +26.2 +25.3 95 +38 +38 очень
душно
996.6 980.1
11 14.08 Ю 1 17 км в посл. час дождь н/о +25.8 +25.3 97 +37 +37 очень
душно
996.1 979.6
12 14.08 ЮВ 2 17 км {дождь} н/о +25.8 +25.3 97 +37 +37 очень
душно
996.5 980.0 +35.8 3
13 14.08 В 2 19 км в посл. час дождь н/о +26.0 +25.0 94 +37 +37 очень
душно
995.9 979.4
14 14.08 В 2 19 км н/о +26.3 +24.9 92 +38 +38 очень
душно
995.3 978.9
15 14.08 В 4 20 км {дождь} н/о +26.9 +24.0 84 +37 +37 очень
душно
993.8 977.4
16 14.08 В 3 13 км н/о +27.6 +23.2 77 +37 +37 очень
душно
992.7 976.4
17 14.08 В 3 20 км н/о +27.9 +22.8 74 +37 +37 очень
душно
991.7 975.4
20 14.08 В 5 20 км слаб. дождь н/о +28.7 +22.9 71 +38 +38 очень
душно
990.1 973.9
21 14.08 ЮВ 3 15 км слаб. дождь н/о +25.4 +24.2 93 +35 +35 очень
душно
990.4 974.0
23 14.08 В 4 9000 м слаб. дождь н/о +26.7 +24.2 86 +37 +37 очень
душно
989.2 972.9
00 15.08 В 6 12 км слаб. дождь н/о +26.8 +24.1 85 +37 +37 очень
душно
988.9 972.6 +25.3 0.5
01 15.08 В 5 8000 м слаб. дождь н/о +25.9 +24.7 93 +37 +37 очень
душно
987.7 971.4
02 15.08 В 5 8000 м слаб. дождь н/о +25.7 +24.7 94 +36 +36 очень
душно
986.8 970.5
03 15.08 В 5 5000 м дождь н/о +25.6 +25.1 97 +37 +37 очень
душно
986.1 969.8
04 15.08 В 5 5000 м дождь н/о +25.4 +25.1 98 +36 +36 очень
душно
985.3 969.0
05 15.08 В 5 6000 м слаб. дождь н/о +25.7 +25.2 97 +37 +37 очень
душно
984.3 968.0
06 15.08 В 5 4800 м слаб. дождь н/о +25.5 +25.0 97 +36 +36 очень
душно
982.9 966.6 13
07 15.08 В 5 4200 м слаб. дождь н/о +25.5 +25.2 98 +37 +37 очень
душно
981.9 965.6
08 15.08 В 4 5000 м дождь н/о +25.6 +25.3 98 +37 +37 очень
душно
981.4 965.1
09 15.08 В 3 20 км в посл. час дождь н/о +25.9 +25.4 97 +38 +38 очень
душно
981.2 965.0
10 15.08 ЮВ 4 4300 м слаб. дождь н/о +25.8 +25.6 99 +38 +38 очень
душно
981.6 965.4
11 15.08 ЮВ 2 15 км слаб. дождь н/о +25.8 +25.8 100 +38 +38 очень
душно
982.8 966.5
12 15.08 Ю 4 20 км слаб. дождь н/о +26.2 +25.7 97 +39 +39 очень
душно
983.8 967.5 +27.4 19
13 15.08 Ю 3 20 км слаб. дождь н/о +26.0 +25.1 95 +37 +37 очень
душно
985.0 968.7
14 15.08 Ю 5 11 км слаб. дождь н/о +26.0 +25.0 94 +37 +37 очень
душно
985.7 969.4
15 15.08 Ю 5 7000 м дождь н/о +25.6 +25.1 97 +37 +37 очень
душно
986.2 969.9
16 15.08 Ю 5 10 км дождь н/о +25.5 +24.8 96 +36 +36 очень
душно
987.3 970.9
17 15.08 Ю 5 19 км слаб. дождь н/о +25.7 +24.7 94 +36 +36 очень
душно
988.8 972.4
18 15.08 Ю 4 20 км слаб. дождь н/о +25.8 +24.8 94 +37 +37 очень
душно
989.8 973.4 12
19 15.08 Ю 4 20 км в посл. час дождь н/о +26.0 +24.8 93 +37 +37 очень
душно
991.0 974.6
20 15.08 Ю 4 20 км в посл. час дождь н/о +26.1 +24.5 91 +37 +37 очень
душно
991.9 975.5
21 15.08 Ю 3 20 км {дождь} н/о +25.9 +24.1 90 +36 +36 очень
душно
993.2 976.8
22 15.08 Ю 5 20 км н/о +27.0 +24.1 84 +37 +37 очень
душно
994.5 978.1
23 15.08 Ю 4 20 км н/о +26.8 +24.1 85 +37 +37 очень
душно
995.6 979.2
00 16.08 ЮЗ 4 20 км {дождь} н/о +27.7 +23.5 78 +38 +38 очень
душно
996.1 979.7 +25.3 12
01 16.08 Ю 3 20 км н/о +27.9 +23.5 77 +38 +38 очень
душно
996.6 980.2
02 16.08 СВ 1 18 км н/о +28.1 +24.7 82 +40 +40 очень
душно
996.7 980.3
03 16.08 С 1 18 км н/о +28.0 +25.0 84 +40 +40 очень
душно
996.9 980.5
04 16.08 ЮЗ 2 20 км н/о +29.9 +24.1 71 +41 +41 опасность
перегрева
997.0 980.7
05 16.08 Ю 2 20 км н/о +30.8 +25.2 72 +45 +45 опасность
перегрева
997.0 980.8
06 16.08 Ю 4 20 км н/о +31.2 +24.3 67 +43 +43 опасность
перегрева
997.0 980.8
07 16.08 Ю 3 20 км н/о +31.4 +23.8 64 +43 +43 опасность
перегрева
997.1 980.9
08 16.08 Ю 2 20 км н/о +30.8 +23.7 66 +42 +42 опасность
перегрева
997.4 981.2
09 16.08 Ю 3 20 км н/о +29.6 +23.3 69 +40 +40 очень
душно
998.2 981.9
11 16.08 С 2 19 км в посл. час дождь н/о +26.8 +24.5 87 +38 +38 очень
душно
999.7 983.2
12 16.08 СВ 1 17 км {дождь} н/о +26.2 +23.7 86 +36 +36 очень
душно
1000.5 984.0 +32.1 0.0
13 16.08 В 1 15 км н/о +25.1 +23.7 92 +34 +34 очень
душно
1001.0 984.4
15 16.08 СВ 2 12 км н/о +24.1 +23.3 95 +32 +32 очень
душно
1001.6 984.9
16 16.08 ЮЗ 1 10 км н/о +23.8 +23.3 97 +32 +32 очень
душно
1001.6 984.9
17 16.08 З 1 8000 м дымка н/о +23.8 +23.5 98 +32 +32 очень
душно
1002.0 985.3
18 16.08 ЮВ 1 6000 м дымка н/о +23.4 +23.2 99 +33 +33 очень
душно
1002.4 985.7
19 16.08 З 1 4600 м дымка н/о +23.1 +23.1 100 +32 +32 очень
душно
1002.8 986.0
20 16.08 СЗ 1 4200 м дымка н/о +22.9 +22.9 100 +32 +32 очень
душно
1003.3 986.5
21 16.08 СЗ 1 3400 м дымка н/о +23.1 +23.1 100 +32 +32 очень
душно
1004.0 987.2
22 16.08 З 1 4400 м дымка н/о +23.3 +23.1 99 +33 +33 очень
душно
1004.4 987.6
23 16.08 ЮВ 1 6000 м дымка н/о +24.3 +23.5 95 +33 +33 очень
душно
1004.4 987.7
00 17.08 В 1 16 км н/о +26.7 +23.0 80 +36 +36 очень
душно
1004.4 987.8 +22.8
01 17.08 З 1 18 км н/о +28.9 +22.6 69 +38 +38 очень
душно
1004.1 987.7
02 17.08 В 1 20 км н/о +30.0 +22.7 65 +40 +40 очень
душно
1003.8 987.4
03 17.08 ЮВ 1 20 км н/о +31.2 +22.5 60 +41 +41 опасность
перегрева
1003.2 986.9
04 17.08 Ю 3 20 км н/о +31.8 +23.9 63 +43 +43 опасность
перегрева
1002.9 986.6
05 17.08 ЮВ 3 20 км н/о +32.8 +24.0 60 +45 +45 опасность
перегрева
1002.5 986.3
06 17.08 ЮВ 3 20 км н/о +31.3 +22.9 61 +41 +41 опасность
перегрева
1002.3 986.0
07 17.08 ЮВ 3 20 км н/о +32.1 +23.1 59 +42 +42 опасность
перегрева
1002.3 986.1
08 17.08 Ю 2 20 км н/о +31.8 +23.6 62 +43 +43 опасность
перегрева
1002.3 986.1
09 17.08 Ю 3 18 км н/о +30.4 +23.1 65 +41 +41 опасность
перегрева
1002.6 986.3
10 17.08 ЮВ 1 20 км н/о +29.7 +22.4 65 +39 +39 очень
душно
1003.3 986.9
13 17.08 СЗ 1 11 км н/о +26.0 +23.5 86 +35 +35 очень
душно
1005.2 988.6
14 17.08 ЮВ 2 8000 м дымка н/о +24.6 +23.4 93 +33 +33 очень
душно
1005.6 988.9
15 17.08 З 1 8000 м дымка н/о +24.6 +23.6 94 +33 +33 очень
душно
1005.9 989.2
16 17.08 З 1 6000 м дымка н/о +23.9 +23.2 96 +32 +32 очень
душно
1005.9 989.1
06 19.08 В 2 5000 м слаб. дождь н/о +26.9 +24.6 87 +38 +38 очень
душно
1009.6 993.0 0.0
09 19.08 В 2 7000 м дымка {дождь} н/о +26.9 +24.6 87 +38 +38 очень
душно
1009.1 992.5
10 19.08 ЮВ 3 5000 м дымка н/о +26.1 +24.7 92 +37 +37 очень
душно
1009.8 993.1
11 19.08 В 2 5000 м дымка н/о +25.9 +24.3 91 +36 +36 очень
душно
1009.9 993.2

 

Местоположение метеостанции Цуяма (Япония): широта 35.07 долгота 134.01 высота над уровнем моря 147 м.

В архиве по умолчанию представлена погода в Цуяме за последнюю неделю. Архивные данные за месяц целиком и за предыдущие месяцы, начиная с января 2011 года, Вы можете получить, выбрав интересующий диапазон дат из раскрывающегося списка и нажав кнопку "Ввод!".


*Определитесь, кто Вы:
робот инопланетянин человек

Внимание! Время в таблицах - всемирное. Для получения местного времени необходимо прибавить поправку, которая равна 9 ч.

Смотрите также архив погоды в соседних городах и на ближайших метеорологических станциях:

Погода в Окаяме (Япония) (45 км)
Погода в Тоттори (Япония) (49 км)
Погода в Химедзи (Япония) (65 км)
Погода в Йонаго (Япония) (74 км)
Погода в Такамацу (Япония) (84 км)
Погода в Сакаи (Япония) (89 км)
Погода в Тоёоке (Япония) (89 км)
Погода в Тадоцу (Япония) (91 км)
Погода в Мацуэ (Япония) (96 км)
Погода в Фукуяме (Япония) (98 км)

Пояснения к столбцам:

Ветер - указаны скорость ветра в м/с - средняя за 10 мин, порывы в срок и между сроками (в фигурных скобках) и направление, откуда дует ветер: С - северный, СВ - северо-восточный, В - восточный, ЮВ - юго-восточный, Ю - южный, ЮЗ - юго-западный, З - западный, СЗ - северо-западный.
Видимость - горизонтальная дальность видимости в метрах или километрах. При видимости от 1 до 10 км при отсутствии осадков обычно наблюдается дымка, при ухудшении видимости до 1 км и менее - туман. В сухую погоду видимость может ухудшаться дымом, пылью или мглою.
Явления - указаны атмосферные явления, наблюдавшиеся в срок или в последний час перед сроком; фигурными скобками обозначены явления, наблюдавшиеся между сроками (за 1-3 часа до срока); квадратными скобками обозначены град или гололедные отложения с указанием их диаметра в мм.
Облачность - указаны через наклонную черту общая и нижняя облачность в баллах и высота нижней границы облаков в метрах; квадратными скобками обозначены формы облаков: Ci - перистые, Cs - перисто-слоистые, Cc - перисто-кучевые, Ac - высококучевые, As - высокослоистые, Sc - слоисто-кучевые, Ns - слоисто-дождевые, Cu - кучевые, Cb - кучево-дождевые. Подробнее классификацию облаков см. в Атласе облаков (PDF).
T - Температура воздуха - температура, измеренная на высоте 2 м над землей.
Td - Температура точки росы - температура, при понижении до которой содержащийся в воздухе водяной пар достигнет насыщения.
f - Относительная влажность воздуха - влажноcть воздуха, измеренная на высоте 2 м над землей.
Te - Эффективная температура - температура, которую ощущает одетый по сезону человек в тени. Характеристика душности погоды. При расчете учитывается влияние влажности воздуха и скорости ветра на теплоощущения человека.
Tes - Эффективная температура на солнце - температура, которую ощущает человек, с поправкой на солнечный нагрев. Характеристика знойности погоды. Зависит от высоты солнца над горизонтом, облачности и скорости ветра. Ночью, в пасмурную погоду, а также при ветре 12 м/с и более поправка равна нулю.
P - Атмосферное давление - приведенное к уровню моря атмосферное давление.
Po - Атмосферное давление - измеренное на уровне метеостанции атмосферное давление.
Tmin - Минимальная температура - минимум температуры воздуха на высоте 2 м над землей.
Tmax - Максимальная температура - максимум температуры воздуха на высоте 2 м над землей.
R - Количество осадков - Количество выпавших осадков за период времени, мм. При наведении курсора мыши на число - период времени, за который выпало указанное количество осадков.
R24 - Количество осадков - Количество выпавших осадков за 24 часа, мм.
S - Снежный покров - Высота снежного покрова, см. При наведении курсора мыши на число - состояние снежного покрова и степень покрытия местности в баллах.